AEROCUBE 12B (43557 NORAD) Tracking and Keplerian Element Data

This shows tracking and keplerian element data for the satellite.

Feedback or suggestion? Click here.




ElementValue
Catalog43557
NameAEROCUBE 12B
Epoch Orbit4292
Epoch Day113.56861621
Epoch Year2019
RAAN325.937
Inclination51.6435
Eccentricity0.0007942
Argument of Perigee226.3733
Mean Anonmoly133.6589
Mean Motion15.28429378
Decay Rate3.14E-06
L11 43557U 18046D 19113.56861621 .00000314 00000-0 23900-4 0 9999
L22 43557 51.6435 325.9370 0007942 226.3733 133.6589 15.28429378 42928

Live tracking and technical data element details for AEROCUBE 12B (NORAD 43557). AEROCUBE 12B can be tracked NOW for your location showing map with azimuth and elevation plus other details from your city location.

Track the satellite on the map from your city or location and see movement details for azimuth, elevation, latitude, longitude, range, height, and movement on the map or in text.







IsCatalogInMostPopularTable: catalog: 43557, numindb: 134
Update: records affected: 1



GetName: 43557 AEROCUBE 12B

Hit Count: updated at: Thu, 25 Apr 2019 20:33:51 GMT